Time,TemperatureF,DewpointF,PressureIn,WindDirection,WindDirectionDegrees,WindSpeedMPH,WindSpeedGustMPH,Humidity,HourlyPrecipIn,Conditions,Clouds,dailyrainin,SoftwareType,DateUTC
2013-05-16 00:01:00,64.3,47.8,29.80,South,187,2.0,2.0,55,0.00,,,0.00,VWS V14.01,2013-05-16 05:01:00,
2013-05-16 00:06:00,64.0,47.5,29.81,South,187,1.0,3.0,55,0.00,,,0.00,VWS V14.01,2013-05-16 05:06:00,
2013-05-16 00:11:00,63.7,47.7,29.81,South,187,1.0,4.0,56,0.00,,,0.00,VWS V14.01,2013-05-16 05:11:00,
2013-05-16 00:16:00,63.4,47.5,29.81,South,187,0.0,4.0,56,0.00,,,0.00,VWS V14.01,2013-05-16 05:16:00,
2013-05-16 00:21:00,63.1,47.6,29.81,South,187,3.0,4.0,57,0.00,,,0.00,VWS V14.01,2013-05-16 05:21:00,
2013-05-16 00:26:00,62.9,47.9,29.81,South,187,3.0,5.0,58,0.00,,,0.00,VWS V14.01,2013-05-16 05:26:00,
2013-05-16 00:31:00,62.8,47.8,29.82,South,187,2.0,3.0,58,0.00,,,0.00,VWS V14.01,2013-05-16 05:31:00,
2013-05-16 00:36:00,62.5,47.5,29.82,South,187,0.0,3.0,58,0.00,,,0.00,VWS V14.01,2013-05-16 05:36:00,
2013-05-16 00:41:00,62.3,47.8,29.82,South,187,1.0,3.0,59,0.00,,,0.00,VWS V14.01,2013-05-16 05:41:00,
2013-05-16 00:46:00,62.1,47.6,29.82,South,188,0.0,4.0,59,0.00,,,0.00,VWS V14.01,2013-05-16 05:46:00,
2013-05-16 00:51:00,62.0,47.5,29.82,South,188,0.0,4.0,59,0.00,,,0.00,VWS V14.01,2013-05-16 05:51:00,
2013-05-16 00:56:00,61.8,47.8,29.82,South,188,0.0,4.0,60,0.00,,,0.00,VWS V14.01,2013-05-16 05:56:00,
2013-05-16 01:01:00,61.6,47.6,29.82,South,189,1.0,2.0,60,0.00,,,0.00,VWS V14.01,2013-05-16 06:01:00,
2013-05-16 01:06:00,61.4,47.4,29.82,South,189,3.0,4.0,60,0.00,,,0.00,VWS V14.01,2013-05-16 06:06:00,
2013-05-16 01:11:00,61.2,48.1,29.82,South,189,3.0,4.0,62,0.00,,,0.00,VWS V14.01,2013-05-16 06:11:00,
2013-05-16 01:17:00,61.1,47.6,29.82,South,189,0.0,4.0,61,0.00,,,0.00,VWS V14.01,2013-05-16 06:17:00,
2013-05-16 01:22:00,60.9,47.4,29.82,South,188,0.0,4.0,61,0.00,,,0.00,VWS V14.01,2013-05-16 06:22:00,
2013-05-16 01:27:00,60.7,47.6,29.82,South,188,0.0,4.0,62,0.00,,,0.00,VWS V14.01,2013-05-16 06:27:00,
2013-05-16 01:32:00,60.5,47.4,29.82,South,189,0.0,2.0,62,0.00,,,0.00,VWS V14.01,2013-05-16 06:32:00,
2013-05-16 01:37:00,60.4,47.3,29.82,South,189,3.0,3.0,62,0.00,,,0.00,VWS V14.01,2013-05-16 06:37:00,
2013-05-16 01:42:00,60.3,47.2,29.81,South,189,1.0,3.0,62,0.00,,,0.00,VWS V14.01,2013-05-16 06:42:00,
2013-05-16 01:47:00,60.2,47.6,29.82,South,189,0.0,3.0,63,0.00,,,0.00,VWS V14.01,2013-05-16 06:47:00,
2013-05-16 01:52:00,60.0,48.2,29.82,South,188,0.0,3.0,65,0.00,,,0.00,VWS V14.01,2013-05-16 06:52:00,
2013-05-16 01:57:00,59.9,48.1,29.82,South,189,0.0,3.0,65,0.00,,,0.00,VWS V14.01,2013-05-16 06:57:00,
2013-05-16 02:02:00,59.6,47.4,29.82,South,189,0.0,0.0,64,0.00,,,0.00,VWS V14.01,2013-05-16 07:02:00,
2013-05-16 02:07:00,59.3,47.5,29.82,South,189,0.0,0.0,65,0.00,,,0.00,VWS V14.01,2013-05-16 07:07:00,
2013-05-16 02:12:00,59.0,47.3,29.82,South,189,0.0,0.0,65,0.00,,,0.00,VWS V14.01,2013-05-16 07:12:00,
2013-05-16 02:17:00,58.7,46.6,29.82,South,189,0.0,0.0,64,0.00,,,0.00,VWS V14.01,2013-05-16 07:17:00,
2013-05-16 02:22:00,58.5,47.2,29.82,South,189,0.0,0.0,66,0.00,,,0.00,VWS V14.01,2013-05-16 07:22:00,
2013-05-16 02:27:00,58.2,46.9,29.82,South,189,0.0,0.0,66,0.00,,,0.00,VWS V14.01,2013-05-16 07:27:00,
2013-05-16 02:32:00,58.0,47.9,29.82,South,189,0.0,0.0,69,0.00,,,0.00,VWS V14.01,2013-05-16 07:32:00,
2013-05-16 02:37:00,57.7,48.0,29.82,South,189,0.0,2.0,70,0.00,,,0.00,VWS V14.01,2013-05-16 07:37:00,
2013-05-16 02:42:00,57.3,47.2,29.82,South,189,0.0,3.0,69,0.00,,,0.00,VWS V14.01,2013-05-16 07:42:00,
2013-05-16 02:47:00,57.2,48.3,29.82,South,189,0.0,3.0,72,0.00,,,0.00,VWS V14.01,2013-05-16 07:47:00,
2013-05-16 02:52:00,57.0,46.9,29.82,South,189,3.0,3.0,69,0.00,,,0.00,VWS V14.01,2013-05-16 07:52:00,
2013-05-16 02:57:00,56.9,46.5,29.82,South,189,0.0,4.0,68,0.00,,,0.00,VWS V14.01,2013-05-16 07:57:00,
2013-05-16 03:00:00,57.0,47.3,29.82,South,189,0.0,4.0,70,0.00,,,0.00,VWS V15.00,2013-05-16 08:00:00,
2013-05-16 03:02:00,57.0,46.9,29.82,South,189,0.0,0.0,69,0.00,,,0.00,VWS V14.01,2013-05-16 08:02:00,
2013-05-16 03:07:00,56.9,47.6,29.82,South,189,0.0,0.0,71,0.00,,,0.00,VWS V14.01,2013-05-16 08:07:00,
2013-05-16 03:13:00,56.7,47.8,29.83,South,189,0.0,0.0,72,0.00,,,0.00,VWS V14.01,2013-05-16 08:13:00,
2013-05-16 03:18:00,56.4,46.4,29.82,South,189,0.0,3.0,69,0.00,,,0.00,VWS V14.01,2013-05-16 08:18:00,
2013-05-16 03:23:00,56.2,46.6,29.83,South,189,0.0,3.0,70,0.00,,,0.00,VWS V14.01,2013-05-16 08:23:00,
2013-05-16 03:28:00,56.0,46.4,29.83,South,189,0.0,3.0,70,0.00,,,0.00,VWS V14.01,2013-05-16 08:28:00,
2013-05-16 03:33:00,55.6,46.4,29.83,South,189,0.0,0.0,71,0.00,,,0.00,VWS V14.01,2013-05-16 08:33:00,
2013-05-16 03:38:00,55.2,46.0,29.83,South,189,0.0,0.0,71,0.00,,,0.00,VWS V14.01,2013-05-16 08:38:00,
2013-05-16 03:43:00,54.8,45.6,29.83,South,189,0.0,0.0,71,0.00,,,0.00,VWS V14.01,2013-05-16 08:43:00,
2013-05-16 03:48:00,54.4,45.2,29.83,South,189,0.0,0.0,71,0.00,,,0.00,VWS V14.01,2013-05-16 08:48:00,
2013-05-16 03:53:00,54.1,45.7,29.83,South,189,0.0,0.0,73,0.00,,,0.00,VWS V14.01,2013-05-16 08:53:00,
2013-05-16 03:58:00,53.8,45.7,29.83,South,189,0.0,0.0,74,0.00,,,0.00,VWS V14.01,2013-05-16 08:58:00,
2013-05-16 04:00:00,53.7,45.6,29.83,South,189,0.0,0.0,74,0.00,,,0.00,VWS V15.00,2013-05-16 09:00:00,
2013-05-16 04:03:00,53.6,45.9,29.83,South,189,0.0,0.0,75,0.00,,,0.00,VWS V14.01,2013-05-16 09:03:00,
2013-05-16 04:08:00,53.4,46.4,29.83,South,189,0.0,0.0,77,0.00,,,0.00,VWS V14.01,2013-05-16 09:08:00,
2013-05-16 04:13:00,53.2,45.8,29.83,South,189,0.0,0.0,76,0.00,,,0.00,VWS V14.01,2013-05-16 09:13:00,
2013-05-16 04:18:00,53.0,46.0,29.83,South,189,0.0,0.0,77,0.00,,,0.00,VWS V14.01,2013-05-16 09:18:00,
2013-05-16 04:23:00,52.8,46.1,29.83,South,190,0.0,0.0,78,0.00,,,0.00,VWS V14.01,2013-05-16 09:23:00,
2013-05-16 04:28:00,52.6,46.3,29.83,South,190,0.0,0.0,79,0.00,,,0.00,VWS V14.01,2013-05-16 09:28:00,
2013-05-16 04:30:00,52.4,45.8,29.83,South,189,0.0,0.0,78,0.00,,,0.00,VWS V15.00,2013-05-16 09:30:00,
2013-05-16 04:33:00,52.3,45.7,29.83,South,190,0.0,0.0,78,0.00,,,0.00,VWS V14.01,2013-05-16 09:33:00,
2013-05-16 04:38:00,52.2,45.9,29.83,South,189,0.0,0.0,79,0.00,,,0.00,VWS V14.01,2013-05-16 09:38:00,
2013-05-16 04:43:00,52.2,46.2,29.83,South,190,0.0,0.0,80,0.00,,,0.00,VWS V14.01,2013-05-16 09:43:00,
2013-05-16 04:48:00,52.1,46.1,29.83,South,190,0.0,0.0,80,0.00,,,0.00,VWS V14.01,2013-05-16 09:48:00,
2013-05-16 04:53:00,51.8,45.5,29.84,South,190,0.0,0.0,79,0.00,,,0.00,VWS V14.01,2013-05-16 09:53:00,
2013-05-16 04:58:00,51.6,45.6,29.84,South,189,0.0,0.0,80,0.00,,,0.00,VWS V14.01,2013-05-16 09:58:00,
2013-05-16 05:03:00,51.4,45.5,29.84,South,189,0.0,0.0,80,0.00,,,0.00,VWS V14.01,2013-05-16 10:03:00,
2013-05-16 05:08:00,51.3,45.7,29.84,South,190,0.0,0.0,81,0.00,,,0.00,VWS V14.01,2013-05-16 10:08:00,
2013-05-16 05:13:00,51.0,45.1,29.84,South,190,0.0,0.0,80,0.00,,,0.00,VWS V14.01,2013-05-16 10:13:00,
2013-05-16 05:19:00,50.8,44.9,29.84,South,190,0.0,0.0,80,0.00,,,0.00,VWS V14.01,2013-05-16 10:19:00,
2013-05-16 05:24:00,50.9,45.6,29.84,South,190,0.0,0.0,82,0.00,,,0.00,VWS V14.01,2013-05-16 10:24:00,
2013-05-16 05:29:00,50.7,45.1,29.84,South,189,0.0,0.0,81,0.00,,,0.00,VWS V14.01,2013-05-16 10:29:00,
2013-05-16 05:34:00,50.5,44.6,29.84,South,190,0.0,0.0,80,0.00,,,0.00,VWS V14.01,2013-05-16 10:34:00,
2013-05-16 05:39:00,50.3,44.4,29.84,South,190,0.0,0.0,80,0.00,,,0.00,VWS V14.01,2013-05-16 10:39:00,
2013-05-16 05:44:00,50.1,44.2,29.85,South,190,0.0,0.0,80,0.00,,,0.00,VWS V14.01,2013-05-16 10:44:00,
2013-05-16 05:49:00,50.0,44.4,29.85,South,189,0.0,0.0,81,0.00,,,0.00,VWS V14.01,2013-05-16 10:49:00,
2013-05-16 05:54:00,50.0,44.7,29.85,South,190,0.0,0.0,82,0.00,,,0.00,VWS V14.01,2013-05-16 10:54:00,
2013-05-16 05:59:00,50.0,45.0,29.85,South,190,0.0,0.0,83,0.00,,,0.00,VWS V14.01,2013-05-16 10:59:00,
2013-05-16 06:04:00,49.9,45.0,29.85,South,190,0.0,0.0,83,0.00,,,0.00,VWS V14.01,2013-05-16 11:04:00,
2013-05-16 06:09:00,49.8,44.5,29.85,South,189,0.0,0.0,82,0.00,,,0.00,VWS V14.01,2013-05-16 11:09:00,
2013-05-16 06:14:00,49.6,44.3,29.86,South,190,0.0,0.0,82,0.00,,,0.00,VWS V14.01,2013-05-16 11:14:00,
2013-05-16 06:19:00,49.6,44.3,29.86,South,190,0.0,0.0,82,0.00,,,0.00,VWS V14.01,2013-05-16 11:19:00,
2013-05-16 06:24:00,49.7,44.1,29.86,South,190,0.0,0.0,81,0.00,,,0.00,VWS V14.01,2013-05-16 11:24:00,
2013-05-16 06:29:00,49.9,45.0,29.86,South,189,0.0,0.0,83,0.00,,,0.00,VWS V14.01,2013-05-16 11:29:00,
2013-05-16 06:34:00,50.2,45.2,29.86,South,189,0.0,0.0,83,0.00,,,0.00,VWS V14.01,2013-05-16 11:34:00,
2013-05-16 06:39:00,50.6,45.6,29.86,South,190,0.0,0.0,83,0.00,,,0.00,VWS V14.01,2013-05-16 11:39:00,
2013-05-16 06:44:00,51.2,45.9,29.87,South,189,0.0,0.0,82,0.00,,,0.00,VWS V14.01,2013-05-16 11:44:00,
2013-05-16 06:49:00,52.4,47.4,29.87,NW,306,0.0,0.0,83,0.00,,,0.00,VWS V14.01,2013-05-16 11:49:00,
2013-05-16 06:54:00,53.7,47.7,29.87,NW,306,0.0,0.0,80,0.00,,,0.00,VWS V14.01,2013-05-16 11:54:00,
2013-05-16 06:59:00,55.4,48.3,29.87,NW,306,0.0,0.0,77,0.00,,,0.00,VWS V14.01,2013-05-16 11:59:00,
2013-05-16 07:04:00,57.2,48.6,29.87,NW,306,0.0,0.0,73,0.00,,,0.00,VWS V14.01,2013-05-16 12:04:00,
2013-05-16 07:09:00,58.5,48.4,29.87,NNW,344,1.0,5.0,69,0.00,,,0.00,VWS V14.01,2013-05-16 12:09:00,
2013-05-16 07:14:00,59.1,48.2,29.87,North,355,2.0,5.0,67,0.00,,,0.00,VWS V14.01,2013-05-16 12:14:00,
2013-05-16 07:20:00,59.5,48.2,29.87,NNE,21,4.0,7.0,66,0.00,,,0.00,VWS V14.01,2013-05-16 12:20:00,
2013-05-16 07:25:00,59.8,48.0,29.87,North,353,6.0,7.0,65,0.00,,,0.00,VWS V14.01,2013-05-16 12:25:00,
2013-05-16 07:30:00,60.3,48.1,29.87,North,358,4.0,7.0,64,0.00,,,0.00,VWS V14.01,2013-05-16 12:30:00,
2013-05-16 07:35:00,60.7,48.0,29.87,North,358,5.0,7.0,63,0.00,,,0.00,VWS V14.01,2013-05-16 12:35:00,
2013-05-16 07:40:00,61.3,48.2,29.88,NNE,27,4.0,7.0,62,0.00,,,0.00,VWS V14.01,2013-05-16 12:40:00,
2013-05-16 07:45:00,61.8,48.2,29.88,NNE,13,3.0,7.0,61,0.00,,,0.00,VWS V14.01,2013-05-16 12:45:00,
2013-05-16 07:50:00,61.8,48.2,29.88,NNE,17,0.0,7.0,61,0.00,,,0.00,VWS V14.01,2013-05-16 12:50:00,
2013-05-16 07:55:00,61.3,47.8,29.88,North,11,4.0,7.0,61,0.00,,,0.00,VWS V14.01,2013-05-16 12:55:00,
2013-05-16 08:00:00,61.4,48.3,29.88,North,9,1.0,7.0,62,0.00,,,0.00,VWS V14.01,2013-05-16 13:00:00,
2013-05-16 08:05:00,62.0,48.4,29.88,North,359,6.0,6.0,61,0.00,,,0.00,VWS V14.01,2013-05-16 13:05:00,
2013-05-16 08:10:00,62.6,48.5,29.88,NNE,17,4.0,7.0,60,0.00,,,0.00,VWS V14.01,2013-05-16 13:10:00,
2013-05-16 08:15:00,62.7,49.1,29.89,North,3,0.0,7.0,61,0.00,,,0.00,VWS V14.01,2013-05-16 13:15:00,
2013-05-16 08:20:00,63.2,48.7,29.89,NNE,23,0.0,7.0,59,0.00,,,0.00,VWS V14.01,2013-05-16 13:20:00,
2013-05-16 08:25:00,63.5,48.5,29.89,NNE,26,0.0,7.0,58,0.00,,,0.00,VWS V14.01,2013-05-16 13:25:00,
2013-05-16 08:30:00,63.9,48.8,29.89,NNE,27,2.0,7.0,58,0.00,,,0.00,VWS V14.01,2013-05-16 13:30:00,
2013-05-16 08:35:00,64.1,49.0,29.89,NNE,27,0.0,3.0,58,0.00,,,0.00,VWS V14.01,2013-05-16 13:35:00,
2013-05-16 08:41:00,64.4,48.8,29.89,NNE,29,2.0,4.0,57,0.00,,,0.00,VWS V14.01,2013-05-16 13:41:00,
2013-05-16 08:46:00,64.6,49.0,29.89,NNE,31,2.0,5.0,57,0.00,,,0.00,VWS V14.01,2013-05-16 13:46:00,
2013-05-16 08:51:00,64.5,49.0,29.88,NNE,18,2.0,5.0,57,0.00,,,0.00,VWS V14.01,2013-05-16 13:51:00,
2013-05-16 08:56:00,64.6,49.5,29.89,NNE,17,1.0,5.0,58,0.00,,,0.00,VWS V14.01,2013-05-16 13:56:00,
2013-05-16 09:00:00,65.2,49.6,29.89,NNE,22,1.0,5.0,57,0.00,,,0.00,VWS V15.00,2013-05-16 14:00:00,
2013-05-16 09:01:00,65.2,49.6,29.89,NNE,23,0.0,1.0,57,0.00,,,0.00,VWS V14.01,2013-05-16 14:01:00,
2013-05-16 09:06:00,65.7,49.1,29.89,NNE,25,2.0,5.0,55,0.00,,,0.00,VWS V14.01,2013-05-16 14:06:00,
2013-05-16 09:11:00,66.2,49.6,29.89,North,360,2.0,7.0,55,0.00,,,0.00,VWS V14.01,2013-05-16 14:11:00,
2013-05-16 09:16:00,66.8,49.6,29.89,NNE,18,2.0,7.0,54,0.00,,,0.00,VWS V14.01,2013-05-16 14:16:00,
2013-05-16 09:21:00,67.6,49.4,29.89,NNE,18,3.0,7.0,52,0.00,,,0.00,VWS V14.01,2013-05-16 14:21:00,
2013-05-16 09:26:00,68.0,49.7,29.89,NNE,32,3.0,7.0,52,0.00,,,0.00,VWS V14.01,2013-05-16 14:26:00,
2013-05-16 09:30:00,68.5,49.2,29.89,NNE,33,4.0,9.0,50,0.00,,,0.00,VWS V15.00,2013-05-16 14:30:00,
2013-05-16 09:31:00,68.6,49.2,29.89,NE,40,2.0,4.0,50,0.00,,,0.00,VWS V14.01,2013-05-16 14:31:00,
2013-05-16 09:36:00,69.2,49.8,29.89,ENE,63,4.0,7.0,50,0.00,,,0.00,VWS V14.01,2013-05-16 14:36:00,
2013-05-16 09:41:00,69.7,50.2,29.89,NE,35,5.0,9.0,50,0.00,,,0.00,VWS V14.01,2013-05-16 14:41:00,
2013-05-16 09:46:00,70.3,50.3,29.89,ENE,58,4.0,10.0,49,0.00,,,0.00,VWS V14.01,2013-05-16 14:46:00,
2013-05-16 09:51:00,71.0,50.9,29.89,NE,56,2.0,10.0,49,0.00,,,0.00,VWS V14.01,2013-05-16 14:51:00,
2013-05-16 09:56:00,71.7,49.8,29.89,NNE,29,2.0,10.0,46,0.00,,,0.00,VWS V14.01,2013-05-16 14:56:00,
2013-05-16 10:01:00,72.3,49.8,29.89,ENE,72,4.0,9.0,45,0.00,,,0.00,VWS V14.01,2013-05-16 15:01:00,
2013-05-16 10:06:00,73.0,47.9,29.89,NE,54,6.0,9.0,41,0.00,,,0.00,VWS V14.01,2013-05-16 15:06:00,
2013-05-16 10:11:00,73.7,48.6,29.88,NE,34,7.0,10.0,41,0.00,,,0.00,VWS V14.01,2013-05-16 15:11:00,
2013-05-16 10:16:00,74.3,47.8,29.88,NE,46,7.0,11.0,39,0.00,,,0.00,VWS V14.01,2013-05-16 15:16:00,
2013-05-16 10:21:00,74.7,47.4,29.88,NE,40,7.0,11.0,38,0.00,,,0.00,VWS V14.01,2013-05-16 15:21:00,
2013-05-16 10:26:00,74.8,46.1,29.88,ENE,77,11.0,13.0,36,0.00,,,0.00,VWS V14.01,2013-05-16 15:26:00,
2013-05-16 10:32:00,74.7,46.7,29.88,East,90,6.0,9.0,37,0.00,,,0.00,VWS V14.01,2013-05-16 15:32:00,
2013-05-16 10:37:00,75.0,46.3,29.89,NE,38,10.0,12.0,36,0.00,,,0.00,VWS V14.01,2013-05-16 15:37:00,
2013-05-16 10:42:00,75.2,47.9,29.89,ENE,68,4.0,12.0,38,0.00,,,0.00,VWS V14.01,2013-05-16 15:42:00,
2013-05-16 10:47:00,75.7,47.6,29.88,ENE,75,3.0,15.0,37,0.00,,,0.00,VWS V14.01,2013-05-16 15:47:00,
2013-05-16 10:52:00,76.0,47.9,29.88,East,90,6.0,15.0,37,0.00,,,0.00,VWS V14.01,2013-05-16 15:52:00,
2013-05-16 10:57:00,76.3,47.4,29.88,ENE,72,6.0,15.0,36,0.00,,,0.00,VWS V14.01,2013-05-16 15:57:00,
2013-05-16 11:02:00,76.5,47.6,29.88,ENE,67,3.0,13.0,36,0.00,,,0.00,VWS V14.01,2013-05-16 16:02:00,
2013-05-16 11:07:00,76.6,46.9,29.88,NE,43,1.0,15.0,35,0.00,,,0.00,VWS V14.01,2013-05-16 16:07:00,
2013-05-16 11:12:00,76.6,47.7,29.87,ENE,76,3.0,15.0,36,0.00,,,0.00,VWS V14.01,2013-05-16 16:12:00,
2013-05-16 11:17:00,76.9,47.2,29.87,East,79,10.0,15.0,35,0.00,,,0.00,VWS V14.01,2013-05-16 16:17:00,
2013-05-16 11:22:00,77.4,46.9,29.87,East,79,5.0,16.0,34,0.00,,,0.00,VWS V14.01,2013-05-16 16:22:00,
2013-05-16 11:27:00,77.6,47.0,29.87,NE,52,4.0,16.0,34,0.00,,,0.00,VWS V14.01,2013-05-16 16:27:00,
2013-05-16 11:32:00,77.6,46.2,29.87,ENE,58,2.0,7.0,33,0.00,,,0.00,VWS V14.01,2013-05-16 16:32:00,
2013-05-16 11:37:00,77.6,47.0,29.87,NE,48,4.0,10.0,34,0.00,,,0.00,VWS V14.01,2013-05-16 16:37:00,
2013-05-16 11:42:00,77.7,47.1,29.87,ENE,60,1.0,11.0,34,0.00,,,0.00,VWS V14.01,2013-05-16 16:42:00,
2013-05-16 11:47:00,77.7,47.1,29.87,East,87,9.0,12.0,34,0.00,,,0.00,VWS V14.01,2013-05-16 16:47:00,
2013-05-16 11:52:00,77.8,46.4,29.86,NE,52,4.0,12.0,33,0.00,,,0.00,VWS V14.01,2013-05-16 16:52:00,
2013-05-16 11:57:00,77.7,47.1,29.86,East,88,2.0,12.0,34,0.00,,,0.00,VWS V14.01,2013-05-16 16:57:00,
2013-05-16 12:02:00,77.8,47.2,29.86,NE,46,4.0,12.0,34,0.00,,,0.00,VWS V14.01,2013-05-16 17:02:00,
2013-05-16 12:07:00,77.9,47.3,29.86,NNE,17,6.0,13.0,34,0.00,,,0.00,VWS V14.01,2013-05-16 17:07:00,
2013-05-16 12:12:00,77.9,45.7,29.86,NE,35,12.0,13.0,32,0.00,,,0.00,VWS V14.01,2013-05-16 17:12:00,
2013-05-16 12:17:00,77.9,44.9,29.86,NNE,29,9.0,13.0,31,0.00,,,0.00,VWS V14.01,2013-05-16 17:17:00,
2013-05-16 12:22:00,77.7,45.5,29.86,NE,44,4.0,13.0,32,0.00,,,0.00,VWS V14.01,2013-05-16 17:22:00,
2013-05-16 12:28:00,77.6,44.6,29.85,NNE,33,4.0,13.0,31,0.00,,,0.00,VWS V14.01,2013-05-16 17:28:00,
2013-05-16 12:33:00,77.8,44.8,29.85,North,4,7.0,13.0,31,0.00,,,0.00,VWS V14.01,2013-05-16 17:33:00,
2013-05-16 12:38:00,77.8,43.0,29.85,East,82,7.0,13.0,29,0.00,,,0.00,VWS V14.01,2013-05-16 17:38:00,
2013-05-16 12:43:00,78.3,44.3,29.85,ENE,76,5.0,15.0,30,0.00,,,0.00,VWS V14.01,2013-05-16 17:43:00,
2013-05-16 12:48:00,78.8,45.6,29.85,ESE,112,4.0,15.0,31,0.00,,,0.00,VWS V14.01,2013-05-16 17:48:00,
2013-05-16 12:53:00,79.1,44.2,29.85,NE,54,9.0,15.0,29,0.00,,,0.00,VWS V14.01,2013-05-16 17:53:00,
2013-05-16 12:58:00,78.9,44.9,29.85,ENE,58,4.0,15.0,30,0.00,,,0.00,VWS V14.01,2013-05-16 17:58:00,
2013-05-16 13:03:00,79.2,45.1,29.85,ENE,69,6.0,9.0,30,0.00,,,0.00,VWS V14.01,2013-05-16 18:03:00,
2013-05-16 13:08:00,79.6,46.3,29.85,ENE,76,5.0,12.0,31,0.00,,,0.00,VWS V14.01,2013-05-16 18:08:00,
2013-05-16 13:13:00,79.7,45.6,29.85,East,86,4.0,14.0,30,0.00,,,0.00,VWS V14.01,2013-05-16 18:13:00,
2013-05-16 13:18:00,80.2,46.0,29.85,NE,54,4.0,15.0,30,0.00,,,0.00,VWS V14.01,2013-05-16 18:18:00,
2013-05-16 13:23:00,80.0,44.9,29.85,ENE,58,3.0,15.0,29,0.00,,,0.00,VWS V14.01,2013-05-16 18:23:00,
2013-05-16 13:28:00,79.4,44.4,29.85,East,85,6.0,15.0,29,0.00,,,0.00,VWS V14.01,2013-05-16 18:28:00,
2013-05-16 13:33:00,79.4,47.0,29.85,ENE,73,2.0,10.0,32,0.00,,,0.00,VWS V14.01,2013-05-16 18:33:00,
2013-05-16 13:38:00,79.5,45.4,29.85,ENE,78,7.0,15.0,30,0.00,,,0.00,VWS V14.01,2013-05-16 18:38:00,
2013-05-16 13:43:00,79.6,45.5,29.85,ENE,67,0.0,15.0,30,0.00,,,0.00,VWS V14.01,2013-05-16 18:43:00,
2013-05-16 13:48:00,79.5,46.2,29.85,East,83,3.0,15.0,31,0.00,,,0.00,VWS V14.01,2013-05-16 18:48:00,
2013-05-16 13:53:00,80.0,44.9,29.85,ENE,74,4.0,15.0,29,0.00,,,0.00,VWS V14.01,2013-05-16 18:53:00,
2013-05-16 13:58:00,80.0,44.9,29.85,East,90,6.0,15.0,29,0.00,,,0.00,VWS V14.01,2013-05-16 18:58:00,
2013-05-16 14:00:00,80.2,45.1,29.85,ENE,69,3.0,15.0,29,0.00,,,0.00,VWS V15.00,2013-05-16 19:00:00,
2013-05-16 14:03:00,80.2,45.1,29.85,NE,43,4.0,9.0,29,0.00,,,0.00,VWS V14.01,2013-05-16 19:03:00,
2013-05-16 14:08:00,79.7,43.8,29.84,NNE,28,4.0,13.0,28,0.00,,,0.00,VWS V14.01,2013-05-16 19:08:00,
2013-05-16 14:13:00,79.6,44.6,29.85,ENE,65,1.0,13.0,29,0.00,,,0.00,VWS V14.01,2013-05-16 19:13:00,
2013-05-16 14:18:00,80.0,44.9,29.84,ENE,71,0.0,13.0,29,0.00,,,0.00,VWS V14.01,2013-05-16 19:18:00,
2013-05-16 14:24:00,80.7,44.6,29.84,ENE,71,4.0,13.0,28,0.00,,,0.00,VWS V14.01,2013-05-16 19:24:00,
2013-05-16 14:29:00,81.1,44.9,29.84,ENE,69,2.0,13.0,28,0.00,,,0.00,VWS V14.01,2013-05-16 19:29:00,
2013-05-16 14:30:00,81.0,43.9,29.84,ENE,60,1.0,13.0,27,0.00,,,0.00,VWS V15.00,2013-05-16 19:30:00,
2013-05-16 14:34:00,80.9,45.7,29.84,ENE,72,5.0,6.0,29,0.00,,,0.00,VWS V14.01,2013-05-16 19:34:00,
2013-05-16 14:39:00,81.2,46.0,29.84,SE,126,7.0,12.0,29,0.00,,,0.00,VWS V14.01,2013-05-16 19:39:00,
2013-05-16 14:44:00,81.8,45.5,29.84,ENE,77,7.0,12.0,28,0.00,,,0.00,VWS V14.01,2013-05-16 19:44:00,
2013-05-16 14:49:00,81.6,45.4,29.83,East,87,4.0,13.0,28,0.00,,,0.00,VWS V14.01,2013-05-16 19:49:00,
2013-05-16 14:54:00,81.6,47.2,29.83,ENE,62,6.0,13.0,30,0.00,,,0.00,VWS V14.01,2013-05-16 19:54:00,
2013-05-16 14:59:00,81.4,46.1,29.83,ESE,107,6.0,13.0,29,0.00,,,0.00,VWS V14.01,2013-05-16 19:59:00,
2013-05-16 15:00:00,81.5,46.2,29.83,East,89,2.0,13.0,29,0.00,,,0.00,VWS V15.00,2013-05-16 20:00:00,
2013-05-16 15:04:00,81.5,45.3,29.83,NE,50,4.0,11.0,28,0.00,,,0.00,VWS V14.01,2013-05-16 20:04:00,
2013-05-16 15:09:00,81.0,44.9,29.83,NNE,32,6.0,11.0,28,0.00,,,0.00,VWS V14.01,2013-05-16 20:09:00,
2013-05-16 15:14:00,80.6,44.5,29.83,NE,51,0.0,11.0,28,0.00,,,0.00,VWS V14.01,2013-05-16 20:14:00,
2013-05-16 15:19:00,80.6,44.5,29.83,NNE,30,5.0,14.0,28,0.00,,,0.00,VWS V14.01,2013-05-16 20:19:00,
2013-05-16 15:24:00,80.5,44.4,29.83,North,356,5.0,14.0,28,0.00,,,0.00,VWS V14.01,2013-05-16 20:24:00,
2013-05-16 15:29:00,80.5,43.5,29.84,ENE,60,2.0,14.0,27,0.00,,,0.00,VWS V14.01,2013-05-16 20:29:00,
2013-05-16 15:34:00,80.6,43.6,29.84,NE,44,5.0,10.0,27,0.00,,,0.00,VWS V14.01,2013-05-16 20:34:00,
2013-05-16 15:39:00,80.9,44.8,29.83,ENE,75,2.0,10.0,28,0.00,,,0.00,VWS V14.01,2013-05-16 20:39:00,
2013-05-16 15:44:00,81.1,44.0,29.84,ENE,67,6.0,10.0,27,0.00,,,0.00,VWS V14.01,2013-05-16 20:44:00,
2013-05-16 15:49:00,81.1,43.0,29.84,East,92,3.0,10.0,26,0.00,,,0.00,VWS V14.01,2013-05-16 20:49:00,
2013-05-16 15:54:00,81.3,44.2,29.84,NE,51,1.0,10.0,27,0.00,,,0.00,VWS V14.01,2013-05-16 20:54:00,
2013-05-16 15:59:00,81.7,44.5,29.84,East,88,0.0,10.0,27,0.00,,,0.00,VWS V14.01,2013-05-16 20:59:00,
2013-05-16 16:04:00,81.8,45.5,29.84,NNE,30,4.0,14.0,28,0.00,,,0.00,VWS V14.01,2013-05-16 21:04:00,
2013-05-16 16:09:00,81.6,45.4,29.84,NNE,29,3.0,14.0,28,0.00,,,0.00,VWS V14.01,2013-05-16 21:09:00,
2013-05-16 16:15:00,81.3,44.2,29.83,North,356,3.0,14.0,27,0.00,,,0.00,VWS V14.01,2013-05-16 21:15:00,
2013-05-16 16:20:00,81.1,44.9,29.83,SE,136,5.0,14.0,28,0.00,,,0.00,VWS V14.01,2013-05-16 21:20:00,
2013-05-16 16:25:00,81.8,44.6,29.83,NE,56,1.0,14.0,27,0.00,,,0.00,VWS V14.01,2013-05-16 21:25:00,
2013-05-16 16:30:00,81.8,44.6,29.83,NNE,31,2.0,14.0,27,0.00,,,0.00,VWS V14.01,2013-05-16 21:30:00,
2013-05-16 16:35:00,81.2,43.1,29.83,NNW,348,3.0,5.0,26,0.00,,,0.00,VWS V14.01,2013-05-16 21:35:00,
2013-05-16 16:40:00,80.9,43.8,29.83,NNE,27,1.0,7.0,27,0.00,,,0.00,VWS V14.01,2013-05-16 21:40:00,
2013-05-16 16:45:00,80.5,44.4,29.83,NE,52,3.0,7.0,28,0.00,,,0.00,VWS V14.01,2013-05-16 21:45:00,
2013-05-16 16:50:00,80.2,43.2,29.83,NE,45,0.0,7.0,27,0.00,,,0.00,VWS V14.01,2013-05-16 21:50:00,
2013-05-16 16:55:00,80.2,44.2,29.83,East,83,2.0,7.0,28,0.00,,,0.00,VWS V14.01,2013-05-16 21:55:00,
2013-05-16 17:00:00,80.2,45.1,29.82,East,84,4.0,7.0,29,0.00,,,0.00,VWS V14.01,2013-05-16 22:00:00,
2013-05-16 17:05:00,80.3,45.2,29.82,East,79,0.0,6.0,29,0.00,,,0.00,VWS V14.01,2013-05-16 22:05:00,
2013-05-16 17:10:00,80.4,45.3,29.82,NNE,31,3.0,6.0,29,0.00,,,0.00,VWS V14.01,2013-05-16 22:10:00,
2013-05-16 17:15:00,80.2,44.2,29.83,NNE,33,0.0,6.0,28,0.00,,,0.00,VWS V14.01,2013-05-16 22:15:00,
2013-05-16 17:20:00,80.2,45.1,29.83,ENE,58,3.0,7.0,29,0.00,,,0.00,VWS V14.01,2013-05-16 22:20:00,
2013-05-16 17:25:00,80.0,44.0,29.83,ENE,65,0.0,7.0,28,0.00,,,0.00,VWS V14.01,2013-05-16 22:25:00,
2013-05-16 17:30:00,80.0,44.0,29.82,East,84,3.0,7.0,28,0.00,,,0.00,VWS V14.01,2013-05-16 22:30:00,
2013-05-16 17:35:00,79.9,44.8,29.82,NE,34,1.0,5.0,29,0.00,,,0.00,VWS V14.01,2013-05-16 22:35:00,
2013-05-16 17:40:00,79.8,44.8,29.82,NE,42,1.0,7.0,29,0.00,,,0.00,VWS V14.01,2013-05-16 22:40:00,
2013-05-16 17:45:00,79.6,44.6,29.82,NE,39,5.0,9.0,29,0.00,,,0.00,VWS V14.01,2013-05-16 22:45:00,
2013-05-16 17:50:00,79.6,45.5,29.82,NE,38,0.0,9.0,30,0.00,,,0.00,VWS V14.01,2013-05-16 22:50:00,
2013-05-16 17:56:00,79.5,45.4,29.82,NNE,31,2.0,9.0,30,0.00,,,0.00,VWS V14.01,2013-05-16 22:56:00,
2013-05-16 18:00:00,79.5,44.5,29.82,NE,38,3.0,9.0,29,0.00,,,0.00,VWS V15.00,2013-05-16 23:00:00,
2013-05-16 18:01:00,79.6,44.6,29.82,NE,38,4.0,9.0,29,0.00,,,0.00,VWS V14.01,2013-05-16 23:01:00,
2013-05-16 18:06:00,79.5,44.5,29.82,NE,46,4.0,6.0,29,0.00,,,0.00,VWS V14.01,2013-05-16 23:06:00,
2013-05-16 18:11:00,79.3,45.2,29.82,NE,35,1.0,6.0,30,0.00,,,0.00,VWS V14.01,2013-05-16 23:11:00,
2013-05-16 18:16:00,79.1,45.0,29.82,NE,48,4.0,6.0,30,0.00,,,0.00,VWS V14.01,2013-05-16 23:16:00,
2013-05-16 18:21:00,79.0,44.1,29.82,NE,42,3.0,6.0,29,0.00,,,0.00,VWS V14.01,2013-05-16 23:21:00,
2013-05-16 18:26:00,78.9,44.0,29.82,NNE,24,0.0,6.0,29,0.00,,,0.00,VWS V14.01,2013-05-16 23:26:00,
2013-05-16 18:31:00,78.7,44.7,29.81,NE,36,2.0,2.0,30,0.00,,,0.00,VWS V14.01,2013-05-16 23:31:00,
2013-05-16 18:36:00,78.6,45.5,29.81,NNE,32,4.0,4.0,31,0.00,,,0.00,VWS V14.01,2013-05-16 23:36:00,
2013-05-16 18:41:00,78.3,45.2,29.81,NNE,28,1.0,5.0,31,0.00,,,0.00,VWS V14.01,2013-05-16 23:41:00,
2013-05-16 18:46:00,78.1,44.2,29.81,NNE,17,3.0,6.0,30,0.00,,,0.00,VWS V14.01,2013-05-16 23:46:00,
2013-05-16 18:51:00,78.0,44.1,29.81,North,4,2.0,6.0,30,0.00,,,0.00,VWS V14.01,2013-05-16 23:51:00,
2013-05-16 18:56:00,77.8,44.8,29.81,NNE,17,1.0,6.0,31,0.00,,,0.00,VWS V14.01,2013-05-16 23:56:00,
2013-05-16 19:00:00,77.6,43.7,29.81,NNE,23,4.0,9.0,30,0.00,,,0.00,VWS V15.00,2013-05-17 00:00:00,
2013-05-16 19:01:00,77.6,43.7,29.81,NNE,23,0.0,4.0,30,0.00,,,0.00,VWS V14.01,2013-05-17 00:01:00,
2013-05-16 19:06:00,77.5,44.5,29.81,NNE,13,5.0,7.0,31,0.00,,,0.00,VWS V14.01,2013-05-17 00:06:00,
2013-05-16 19:11:00,77.3,44.3,29.82,NNE,23,2.0,7.0,31,0.00,,,0.00,VWS V14.01,2013-05-17 00:11:00,
2013-05-16 19:16:00,77.2,44.2,29.82,NNE,27,0.0,7.0,31,0.00,,,0.00,VWS V14.01,2013-05-17 00:16:00,
2013-05-16 19:21:00,77.1,44.2,29.82,NE,49,1.0,7.0,31,0.00,,,0.00,VWS V14.01,2013-05-17 00:21:00,
2013-05-16 19:26:00,76.9,44.8,29.82,NE,45,2.0,7.0,32,0.00,,,0.00,VWS V14.01,2013-05-17 00:26:00,
2013-05-16 19:31:00,76.6,44.6,29.82,NE,46,1.0,2.0,32,0.00,,,0.00,VWS V14.01,2013-05-17 00:31:00,
2013-05-16 19:36:00,76.4,45.2,29.82,NNE,31,3.0,9.0,33,0.00,,,0.00,VWS V14.01,2013-05-17 00:36:00,
2013-05-16 19:41:00,76.2,45.0,29.83,NNE,24,3.0,9.0,33,0.00,,,0.00,VWS V14.01,2013-05-17 00:41:00,
2013-05-16 19:46:00,76.1,44.9,29.83,NE,42,0.0,9.0,33,0.00,,,0.00,VWS V14.01,2013-05-17 00:46:00,
2013-05-16 19:51:00,76.0,44.8,29.83,NE,44,3.0,9.0,33,0.00,,,0.00,VWS V14.01,2013-05-17 00:51:00,
2013-05-16 19:56:00,75.8,44.7,29.83,NE,56,4.0,9.0,33,0.00,,,0.00,VWS V14.01,2013-05-17 00:56:00,
2013-05-16 20:02:00,75.6,44.5,29.83,NE,46,3.0,5.0,33,0.00,,,0.00,VWS V14.01,2013-05-17 01:02:00,
2013-05-16 20:07:00,75.4,45.1,29.83,NE,40,3.0,6.0,34,0.00,,,0.00,VWS V14.01,2013-05-17 01:07:00,
2013-05-16 20:12:00,75.2,44.9,29.83,NE,49,2.0,6.0,34,0.00,,,0.00,VWS V14.01,2013-05-17 01:12:00,
2013-05-16 20:17:00,75.0,44.8,29.83,NE,54,0.0,6.0,34,0.00,,,0.00,VWS V14.01,2013-05-17 01:17:00,
2013-05-16 20:22:00,74.8,44.6,29.83,NE,40,2.0,6.0,34,0.00,,,0.00,VWS V14.01,2013-05-17 01:22:00,
2013-05-16 20:27:00,74.6,45.2,29.83,NE,45,0.0,6.0,35,0.00,,,0.00,VWS V14.01,2013-05-17 01:27:00,
2013-05-16 20:32:00,74.4,45.7,29.83,NE,50,1.0,6.0,36,0.00,,,0.00,VWS V14.01,2013-05-17 01:32:00,
2013-05-16 20:37:00,74.2,44.8,29.83,NE,38,4.0,6.0,35,0.00,,,0.00,VWS V14.01,2013-05-17 01:37:00,
2013-05-16 20:42:00,74.1,45.5,29.83,NE,54,1.0,7.0,36,0.00,,,0.00,VWS V14.01,2013-05-17 01:42:00,
2013-05-16 20:47:00,74.1,44.0,29.83,NNE,27,2.0,9.0,34,0.00,,,0.00,VWS V14.01,2013-05-17 01:47:00,
2013-05-16 20:52:00,74.2,43.3,29.83,NE,44,4.0,9.0,33,0.00,,,0.00,VWS V14.01,2013-05-17 01:52:00,
2013-05-16 20:57:00,74.1,44.0,29.83,NNE,33,4.0,9.0,34,0.00,,,0.00,VWS V14.01,2013-05-17 01:57:00,
2013-05-16 21:02:00,74.0,43.1,29.83,NNE,29,6.0,6.0,33,0.00,,,0.00,VWS V14.01,2013-05-17 02:02:00,
2013-05-16 21:07:00,74.0,42.3,29.83,NNE,23,4.0,9.0,32,0.00,,,0.00,VWS V14.01,2013-05-17 02:07:00,
2013-05-16 21:12:00,74.0,41.5,29.83,NNE,33,5.0,9.0,31,0.00,,,0.00,VWS V14.01,2013-05-17 02:12:00,
2013-05-16 21:17:00,73.9,41.4,29.84,East,83,4.0,13.0,31,0.00,,,0.00,VWS V14.01,2013-05-17 02:17:00,
2013-05-16 21:22:00,73.8,39.6,29.84,NNE,28,5.0,13.0,29,0.00,,,0.00,VWS V14.01,2013-05-17 02:22:00,
2013-05-16 21:27:00,73.9,39.7,29.84,NE,39,6.0,14.0,29,0.00,,,0.00,VWS V14.01,2013-05-17 02:27:00,
2013-05-16 21:30:00,73.8,38.7,29.84,North,354,12.0,15.0,28,0.00,,,0.00,VWS V15.00,2013-05-17 02:30:00,
2013-05-16 21:32:00,73.8,38.7,29.84,NE,41,7.0,15.0,28,0.00,,,0.00,VWS V14.01,2013-05-17 02:32:00,
2013-05-16 21:37:00,73.6,38.5,29.84,NE,42,6.0,16.0,28,0.00,,,0.00,VWS V14.01,2013-05-17 02:37:00,
2013-05-16 21:43:00,73.5,38.4,29.85,NE,52,5.0,16.0,28,0.00,,,0.00,VWS V14.01,2013-05-17 02:43:00,
2013-05-16 21:48:00,73.3,38.3,29.85,NE,40,6.0,16.0,28,0.00,,,0.00,VWS V14.01,2013-05-17 02:48:00,
2013-05-16 21:53:00,73.0,38.0,29.86,NNE,33,6.0,16.0,28,0.00,,,0.00,VWS V14.01,2013-05-17 02:53:00,
2013-05-16 21:58:00,72.7,38.6,29.86,North,6,7.0,16.0,29,0.00,,,0.00,VWS V14.01,2013-05-17 02:58:00,
2013-05-16 22:00:00,72.6,37.7,29.86,NE,52,7.0,16.0,28,0.00,,,0.00,VWS V15.00,2013-05-17 03:00:00,
2013-05-16 22:03:00,72.6,37.7,29.86,NE,46,5.0,13.0,28,0.00,,,0.00,VWS V14.01,2013-05-17 03:03:00,
2013-05-16 22:08:00,72.4,37.5,29.86,NE,52,9.0,13.0,28,0.00,,,0.00,VWS V14.01,2013-05-17 03:08:00,
2013-05-16 22:13:00,72.2,37.3,29.86,ENE,63,3.0,13.0,28,0.00,,,0.00,VWS V14.01,2013-05-17 03:13:00,
2013-05-16 22:18:00,72.0,37.1,29.85,NE,48,4.0,13.0,28,0.00,,,0.00,VWS V14.01,2013-05-17 03:18:00,
2013-05-16 22:23:00,71.8,37.0,29.86,NE,44,6.0,13.0,28,0.00,,,0.00,VWS V14.01,2013-05-17 03:23:00,
2013-05-16 22:28:00,71.7,36.9,29.86,NNE,29,5.0,13.0,28,0.00,,,0.00,VWS V14.01,2013-05-17 03:28:00,
2013-05-16 22:33:00,71.5,36.7,29.86,NNE,26,4.0,12.0,28,0.00,,,0.00,VWS V14.01,2013-05-17 03:33:00,
2013-05-16 22:38:00,71.3,37.4,29.86,NE,34,3.0,12.0,29,0.00,,,0.00,VWS V14.01,2013-05-17 03:38:00,
2013-05-16 22:43:00,71.2,36.5,29.86,NNE,31,6.0,13.0,28,0.00,,,0.00,VWS V14.01,2013-05-17 03:43:00,
2013-05-16 22:48:00,71.0,37.2,29.86,NNE,23,0.0,13.0,29,0.00,,,0.00,VWS V14.01,2013-05-17 03:48:00,
2013-05-16 22:53:00,70.7,36.9,29.86,ENE,74,5.0,13.0,29,0.00,,,0.00,VWS V14.01,2013-05-17 03:53:00,
2013-05-16 22:58:00,70.5,36.7,29.85,NE,45,11.0,13.0,29,0.00,,,0.00,VWS V14.01,2013-05-17 03:58:00,
2013-05-16 23:00:00,70.4,36.7,29.85,NE,46,5.0,17.0,29,0.00,,,0.00,VWS V15.00,2013-05-17 04:00:00,
2013-05-16 23:01:00,70.4,36.7,29.85,NE,46,5.0,17.0,29,0.00,,,0.00,VWS V14.01,2013-05-17 04:01:00,
2013-05-16 23:02:00,70.4,37.5,29.85,North,8,5.0,10.0,30,0.00,,,0.00,VWS V14.01,2013-05-17 04:02:00,
2013-05-16 23:04:00,70.4,36.7,29.85,NE,56,6.0,10.0,29,0.00,,,0.00,VWS V14.01,2013-05-17 04:04:00,
2013-05-16 23:06:00,70.3,36.6,29.86,NNE,27,5.0,11.0,29,0.00,,,0.00,VWS V14.01,2013-05-17 04:06:00,
2013-05-16 23:11:00,70.2,36.5,29.86,NNE,29,6.0,11.0,29,0.00,,,0.00,VWS V14.01,2013-05-17 04:11:00,
2013-05-16 23:16:00,70.1,36.4,29.86,NE,53,2.0,11.0,29,0.00,,,0.00,VWS V14.01,2013-05-17 04:16:00,
2013-05-16 23:21:00,70.1,36.4,29.87,ENE,75,3.0,11.0,29,0.00,,,0.00,VWS V14.01,2013-05-17 04:21:00,
2013-05-16 23:26:00,70.0,35.4,29.87,NE,53,4.0,11.0,28,0.00,,,0.00,VWS V14.01,2013-05-17 04:26:00,
2013-05-16 23:31:00,69.8,36.1,29.88,NE,51,4.0,4.0,29,0.00,,,0.00,VWS V14.01,2013-05-17 04:31:00,
2013-05-16 23:36:00,69.6,36.8,29.88,NE,44,0.0,5.0,30,0.00,,,0.00,VWS V14.01,2013-05-17 04:36:00,
2013-05-16 23:41:00,69.3,36.6,29.89,ENE,65,3.0,7.0,30,0.00,,,0.00,VWS V14.01,2013-05-17 04:41:00,
2013-05-16 23:46:00,68.8,37.0,29.89,NE,43,5.0,13.0,31,0.00,,,0.00,VWS V14.01,2013-05-17 04:46:00,
2013-05-16 23:51:00,68.1,37.9,29.88,NNE,25,9.0,13.0,33,0.00,,,0.00,VWS V14.01,2013-05-17 04:51:00,
2013-05-16 23:56:00,66.9,38.4,29.88,NE,39,6.0,13.0,35,0.00,,,0.00,VWS V14.01,2013-05-17 04:56:00,